AZU4010 SBKP-SBIL

Flight info

Callsign AZU4010
Flight time N/A
Altitude 37000
Route KONVI UZ23 UTLON DCT DALOX
Aircraft A320/M-SDE3FGHIRWY/LB1

Departure

Time 2026-05-01 14:53
Airport Viracopos International Airport (SBKP)

Arrival

Time N/A
Airport Bahia - Jorge Amado Airport (SBIL)
Time Latitude Longitude Altitude Speed Heading
2026-05-01 14:29 -23.00496 -47.14936 2152 ft 0 kts 39°
2026-05-01 14:39 -23.00504 -47.14943 2155 ft 2 kts 38°
2026-05-01 14:40 -23.00519 -47.14949 2151 ft 2 kts 346°
2026-05-01 14:40 -23.00535 -47.14943 2155 ft 2 kts 338°
2026-05-01 14:40 -23.00551 -47.14936 2153 ft 2 kts 338°
2026-05-01 14:40 -23.00564 -47.14930 2152 ft 2 kts 308°
2026-05-01 14:41 -23.00571 -47.14921 2156 ft 0 kts 313°
2026-05-01 14:41 -23.00572 -47.14922 2156 ft 0 kts 306°
2026-05-01 14:45 -23.00500 -47.15027 2153 ft 9 kts 308°
2026-05-01 14:45 -23.00467 -47.15073 2155 ft 7 kts 308°
2026-05-01 14:46 -23.00438 -47.15113 2153 ft 8 kts 308°
2026-05-01 14:46 -23.00355 -47.15153 2151 ft 10 kts 37°
2026-05-01 14:46 -23.00296 -47.15102 2153 ft 12 kts 39°
2026-05-01 14:47 -23.00229 -47.15044 2151 ft 13 kts 38°
2026-05-01 14:47 -23.00154 -47.14980 2154 ft 14 kts 38°
2026-05-01 14:47 -23.00071 -47.14912 2153 ft 16 kts 37°
2026-05-01 14:48 -22.99976 -47.14805 2157 ft 3 kts 39°
2026-05-01 14:48 -22.99975 -47.14804 2157 ft 0 kts 38°
2026-05-01 14:48 -22.99971 -47.14800 2156 ft 1 kts 38°
2026-05-01 14:49 -22.99924 -47.14759 2154 ft 0 kts 45°
2026-05-01 14:49 -22.99892 -47.14710 2155 ft 7 kts 77°
2026-05-01 14:50 -22.99895 -47.14632 2151 ft 5 kts 129°
2026-05-01 14:50 -22.99896 -47.14631 2151 ft 0 kts 127°
2026-05-01 14:52 -22.99904 -47.14619 2150 ft 12 kts 127°
2026-05-01 14:52 -23.00619 -47.13616 2149 ft 144 kts 128°
2026-05-01 14:53 -23.01301 -47.12633 2362 ft 172 kts 124°
2026-05-01 14:53 -23.01885 -47.11480 3059 ft 175 kts 95°
2026-05-01 14:53 -23.01866 -47.10148 3636 ft 182 kts 79°
2026-05-01 14:53 -23.01643 -47.08706 3901 ft 204 kts 77°
2026-05-01 14:54 -23.01366 -47.07110 4230 ft 225 kts 77°
2026-05-01 14:54 -23.01077 -47.05337 4611 ft 251 kts 78°
2026-05-01 14:54 -23.00775 -47.03389 5140 ft 268 kts 75°
2026-05-01 14:54 -23.00001 -47.01566 5922 ft 269 kts 47°
2026-05-01 14:55 -22.98581 -47.00261 6770 ft 271 kts 36°
2026-05-01 14:55 -22.97054 -46.99025 7524 ft 277 kts 36°
2026-05-01 14:55 -22.95496 -46.97761 7862 ft 281 kts 36°
2026-05-01 14:55 -22.93933 -46.96492 7960 ft 281 kts 36°
2026-05-01 14:56 -22.92368 -46.95217 7968 ft 280 kts 36°
2026-05-01 14:56 -22.90815 -46.93949 7969 ft 279 kts 36°
2026-05-01 14:56 -22.89266 -46.92629 8287 ft 287 kts 39°
2026-05-01 14:56 -22.87761 -46.91251 9157 ft 288 kts 39°
2026-05-01 14:57 -22.86213 -46.89797 9893 ft 294 kts 40°
2026-05-01 14:57 -22.83109 -46.86864 10160 ft 296 kts 40°
2026-05-01 14:57 -22.81551 -46.85401 10158 ft 296 kts 40°
2026-05-01 14:58 -22.79991 -46.83943 10162 ft 297 kts 40°
2026-05-01 14:58 -22.78402 -46.82467 10163 ft 308 kts 39°
2026-05-01 14:58 -22.76822 -46.80969 10166 ft 313 kts 42°
2026-05-01 14:58 -22.75260 -46.79342 10159 ft 314 kts 44°
2026-05-01 14:59 -22.73708 -46.77637 10157 ft 314 kts 45°
2026-05-01 14:59 -22.72171 -46.75914 10159 ft 322 kts 45°
2026-05-01 14:59 -22.70623 -46.74176 10157 ft 323 kts 45°
2026-05-01 14:59 -22.69060 -46.72434 10164 ft 327 kts 45°
2026-05-01 15:00 -22.66125 -46.68756 10160 ft 332 kts 59°
2026-05-01 15:00 -22.65199 -46.66457 10175 ft 336 kts 74°
2026-05-01 15:00 -22.64855 -46.63924 10711 ft 343 kts 89°
2026-05-01 15:01 -22.65002 -46.61334 11450 ft 346 kts 95°
2026-05-01 15:01 -22.65210 -46.58718 12109 ft 351 kts 94°
2026-05-01 15:01 -22.65420 -46.56065 12740 ft 356 kts 94°
2026-05-01 15:01 -22.65631 -46.53385 13090 ft 359 kts 94°
2026-05-01 15:02 -22.65843 -46.50699 13164 ft 358 kts 94°
2026-05-01 15:02 -22.65915 -46.49788 13169 ft 358 kts 94°
2026-05-01 15:02 -22.66271 -46.45316 13176 ft 358 kts 94°
2026-05-01 15:02 -22.66485 -46.42631 13170 ft 358 kts 94°
2026-05-01 15:03 -22.66699 -46.39945 13174 ft 359 kts 94°
2026-05-01 15:03 -22.66915 -46.37256 13173 ft 358 kts 94°
2026-05-01 15:03 -22.67130 -46.34576 13175 ft 357 kts 94°
2026-05-01 15:03 -22.67344 -46.31894 13188 ft 358 kts 94°
2026-05-01 15:04 -22.67557 -46.29213 13187 ft 358 kts 94°
2026-05-01 15:04 -22.67767 -46.26569 13185 ft 357 kts 94°
2026-05-01 15:04 -22.67980 -46.23858 13188 ft 358 kts 94°
2026-05-01 15:04 -22.68021 -46.21208 13187 ft 357 kts 83°
2026-05-01 15:05 -22.67473 -46.18599 13191 ft 355 kts 68°
2026-05-01 15:05 -22.66325 -46.16242 13404 ft 357 kts 52°
2026-05-01 15:05 -22.64645 -46.14253 14052 ft 359 kts 39°
2026-05-01 15:05 -22.62713 -46.12528 14599 ft 362 kts 38°
2026-05-01 15:06 -22.60751 -46.10791 15099 ft 367 kts 38°
2026-05-01 15:06 -22.58763 -46.09034 15621 ft 370 kts 37°
2026-05-01 15:06 -22.56756 -46.07258 16124 ft 375 kts 37°
2026-05-01 15:06 -22.54729 -46.05464 16637 ft 379 kts 37°
2026-05-01 15:07 -22.52681 -46.03653 17188 ft 382 kts 38°
2026-05-01 15:07 -22.50615 -46.01827 17693 ft 386 kts 38°
2026-05-01 15:07 -22.48525 -45.99986 18209 ft 389 kts 37°
2026-05-01 15:07 -22.46422 -45.98133 18685 ft 392 kts 37°
2026-05-01 15:08 -22.44297 -45.96259 19142 ft 395 kts 37°
2026-05-01 15:08 -22.42166 -45.94378 19615 ft 397 kts 37°
2026-05-01 15:08 -22.40016 -45.92482 20075 ft 400 kts 37°
2026-05-01 15:08 -22.37852 -45.90581 20535 ft 402 kts 37°
2026-05-01 15:09 -22.35679 -45.88671 20980 ft 405 kts 37°
2026-05-01 15:09 -22.33486 -45.86745 21446 ft 407 kts 37°
2026-05-01 15:09 -22.31284 -45.84812 21894 ft 410 kts 37°
2026-05-01 15:09 -22.29067 -45.82864 22325 ft 412 kts 37°
2026-05-01 15:10 -22.26837 -45.80909 22761 ft 415 kts 37°
2026-05-01 15:10 -22.22340 -45.77014 23610 ft 419 kts 37°
2026-05-01 15:10 -22.20052 -45.75045 23979 ft 422 kts 36°
2026-05-01 15:11 -22.17750 -45.73063 24315 ft 424 kts 36°
2026-05-01 15:11 -22.13112 -45.69065 24992 ft 429 kts 36°
2026-05-01 15:11 -22.10776 -45.67052 25339 ft 431 kts 36°
2026-05-01 15:12 -22.08421 -45.65023 25683 ft 434 kts 36°
2026-05-01 15:12 -22.03689 -45.60940 26348 ft 438 kts 36°
2026-05-01 15:12 -22.01301 -45.58887 26692 ft 440 kts 36°
2026-05-01 15:13 -21.94885 -45.53367 27534 ft 446 kts 36°
2026-05-01 15:14 -21.90017 -45.49174 28173 ft 451 kts 36°
2026-05-01 15:14 -21.87563 -45.47062 28482 ft 453 kts 36°
2026-05-01 15:14 -21.82615 -45.42818 29098 ft 457 kts 36°
2026-05-01 15:15 -21.77632 -45.38544 29707 ft 461 kts 36°
2026-05-01 15:15 -21.72594 -45.34225 30289 ft 465 kts 36°
2026-05-01 15:16 -21.67505 -45.29873 30766 ft 468 kts 36°
2026-05-01 15:16 -21.62385 -45.25498 31237 ft 472 kts 36°
2026-05-01 15:17 -21.57234 -45.21083 31726 ft 474 kts 36°
2026-05-01 15:18 -21.49504 -45.14476 32703 ft 473 kts 36°
2026-05-01 15:18 -21.46929 -45.12292 33033 ft 472 kts 36°
2026-05-01 15:19 -21.39213 -45.05729 34028 ft 471 kts 36°
2026-05-01 15:19 -21.34086 -45.01360 34647 ft 470 kts 36°
2026-05-01 15:19 -21.31528 -44.99185 34932 ft 470 kts 36°
2026-05-01 15:20 -21.26414 -44.94827 35438 ft 469 kts 36°
2026-05-01 15:20 -21.23890 -44.92678 35676 ft 469 kts 36°
2026-05-01 15:20 -21.21336 -44.90510 35928 ft 469 kts 36°
2026-05-01 15:21 -21.18777 -44.88343 36160 ft 468 kts 36°
2026-05-01 15:21 -21.16224 -44.86180 36386 ft 468 kts 36°
2026-05-01 15:21 -21.13672 -44.84018 36624 ft 468 kts 36°
2026-05-01 15:21 -21.11115 -44.81856 36845 ft 467 kts 36°
2026-05-01 15:22 -21.06013 -44.77541 37151 ft 467 kts 36°
2026-05-01 15:22 -21.00852 -44.73361 37161 ft 464 kts 33°
2026-05-01 15:23 -20.95579 -44.69398 37163 ft 463 kts 32°
2026-05-01 15:23 -20.90292 -44.65458 37171 ft 463 kts 32°
2026-05-01 15:24 -20.85035 -44.61471 37172 ft 463 kts 33°
2026-05-01 15:24 -20.79785 -44.57453 37173 ft 464 kts 33°
2026-05-01 15:25 -20.74542 -44.53431 37173 ft 464 kts 33°
2026-05-01 15:25 -20.69283 -44.49428 37182 ft 464 kts 33°
2026-05-01 15:26 -20.64015 -44.45437 37172 ft 465 kts 33°
2026-05-01 15:26 -20.58748 -44.41434 37189 ft 464 kts 33°
2026-05-01 15:27 -20.53488 -44.37431 37184 ft 464 kts 33°
2026-05-01 15:28 -20.45607 -44.31435 37182 ft 464 kts 33°
2026-05-01 15:28 -20.40402 -44.27447 37180 ft 464 kts 34°
2026-05-01 15:29 -20.32669 -44.21261 37189 ft 462 kts 35°
2026-05-01 15:30 -20.22368 -44.13068 37183 ft 462 kts 34°
2026-05-01 15:31 -20.06913 -44.00871 37224 ft 460 kts 34°
2026-05-01 15:32 -19.96615 -43.92768 37254 ft 460 kts 34°
2026-05-01 15:34 -19.81142 -43.80751 37244 ft 458 kts 32°